sat.trackr.live / text

‹ back to catalog

STARLINK-37663

NORAD 69048 · 2026-101Z

PAYLOAD ACTIVE UNKNOWN

§ Identity

Operator
Country
US
Launch date
2026-05-06
Launch site
AFWTR
Launch vehicle
Mass (kg)
RCS (m²)

Purposes: comms

External: N2YO · Heavens-Above · Gunter

§ Orbital elements

Epoch: 2026-05-25T03:10:50.274048Z

Period
91.45 min
Inclination
97.2843°
Eccentricity
0.0002705
Mean motion
15.74636678 rev/d
Perigee alt
343.8 km
Apogee alt
347.5 km
Semi-major
6,723.8 km
B*
-4.4530e-3
RAAN
359.9194°
Arg perigee
58.3128°
Mean anomaly
301.8400°
Rev number
301

§ Raw data

STARLINK-376631 69048U 26101Z   26145.13252632 -.00604940  00000+0 -44530-2 0  99912 69048  97.2843 359.9194 0002705  58.3128 301.8400 15.74636678  3016

JSON: /api/v1/satellites/69048 · /tle

For live sub-satellite position, see the globe view (requires WebGL).

§ Visibility from observer

Set your observer location to see the next 7 days of passes ≥ 10°. The values pass through the URL so the page stays shareable.

No JS? Fill the form by hand. The geolocation button needs JavaScript.